Regional Weather Roundup
Issued by NWS

Home | Current Version | Previous Version | Text Only | Print | Product List | Glossary On
Versions: 1 2 3 4 5 6 7 8 9 10 11 12 13 14 15 16 17 18 19 20 21 22 23 24 25 26 27 28 29 30 31 32 33 34 35 36 37 38 39 40 41 42 43 44 45 46 47 48 49 50
000
ASUS43 KBIS 251410
RWRND
NORTH DAKOTA REGIONAL WEATHER ROUNDUP
NATIONAL WEATHER SERVICE EASTERN NORTH DAKOTA/GRAND FORKS ND
900 AM CDT FRI MAY 25 2018

  NOTE: "FAIR" INDICATES FEW OR NO CLOUDS BELOW 12,000 FEET WITH NO
  SIGNIFICANT WEATHER AND/OR OBSTRUCTIONS TO VISIBILITY.

NDZ001>003-009>011-017-251500-
...NORTHWEST NORTH DAKOTA...

CITY           SKY/WX    TMP DP  RH WIND       PRES   REMARKS
WILLISTON      FAIR      70  53  54 W21G26    29.74R
MINOT          FAIR      76  53  44 SW14      29.68F
MINOT AFB      FAIR      73  54  51 W14G23    29.66F
$$

NDZ018>021-031>035-040>046-251500-
...SOUTHWEST NORTH DAKOTA...

CITY           SKY/WX    TMP DP  RH WIND       PRES   REMARKS
BISMARCK       FAIR      71  58  63 W7        29.78S
DICKINSON      FAIR      71  54  54 W17       29.81S
GARRISON         N/A     70  54  56 SW13      29.73S
HETTINGER      FAIR      67  54  63 W12       29.87F
$$

NDZ004>008-012>016-024-026-027-054-251500-
...NORTHEAST NORTH DAKOTA...

CITY           SKY/WX    TMP DP  RH WIND       PRES   REMARKS
GRAND FORKS    FAIR      75  60  59 W10       29.66F
GRAND FORKS AF FAIR      76  59  54 W9        29.67F
DEVILS LAKE    FAIR      69  57  65 SW10      29.71S
$$

NDZ022-023-025-028>030-036>039-047>053-251500-
...SOUTHEAST NORTH DAKOTA...

CITY           SKY/WX    TMP DP  RH WIND       PRES   REMARKS
JAMESTOWN      FAIR      75  59  57 W9        29.73F
FARGO          FAIR      74  59  59 SW8       29.71F
WAHPETON       FAIR      75  54  46 W7        29.75S
$$



USA.gov is the U.S. government's official web portal to all federal, state and local government web resources and services.